This is the latest recevied weather packets stored in our database for station/object KJ7HSW. If no packets are shown the sender has not sent any weather packets the latest 10 day(s).
| Time | Temp. | Humidity | Pressure | Rain* | Wind** | Luminosity | Snow |
|---|---|---|---|---|---|---|---|
| 1777475951 | 10.56° C | 78% | 1025.9 hPa | 0 mm | - | 123 W/m² | - |
| 1777475648 | 10° C | 80% | 1026 hPa | 0 mm | - | 64 W/m² | - |
| 1777475344 | 9.44° C | 82% | 1026.1 hPa | 0 mm | - | 49 W/m² | - |
| 1777475039 | 9.44° C | 82% | 1026.3 hPa | 0 mm | - | 47 W/m² | - |
| 1777474736 | 8.89° C | 83% | 1026 hPa | 0 mm | - | 46 W/m² | - |
| 1777474433 | 8.89° C | 84% | 1026.1 hPa | 0 mm | - | 45 W/m² | - |
| 1777474129 | 8.89° C | 84% | 1026.1 hPa | 0 mm | - | 44 W/m² | - |
| 1777473827 | 8.33° C | 85% | 1025.9 hPa | 0 mm | - | 43 W/m² | - |
| 1777473524 | 8.33° C | 86% | 1026 hPa | 0 mm | - | 42 W/m² | - |
| 1777473219 | 8.33° C | 87% | 1026.1 hPa | 0 mm | - | 41 W/m² | - |
| 1777472916 | 8.33° C | 88% | 1025.8 hPa | 0 mm | - | 40 W/m² | - |
| 1777472613 | 7.78° C | 92% | 1025.7 hPa | 0 mm | - | 39 W/m² | - |
| 1777472309 | 7.78° C | 93% | 1025.7 hPa | 0 mm | - | 38 W/m² | - |
| 1777472007 | 7.78° C | 93% | 1025.7 hPa | 0 mm | - | 36 W/m² | - |
| 1777471702 | 7.78° C | 93% | 1025.7 hPa | 0 mm | - | 35 W/m² | - |
| 1777471399 | 7.78° C | 93% | 1025.8 hPa | 0 mm | - | 35 W/m² | - |
| 1777471095 | 7.78° C | 93% | 1025.7 hPa | 0 mm | - | 36 W/m² | - |
| 1777470792 | 7.78° C | 93% | 1025.6 hPa | 0 mm | - | 37 W/m² | - |
| 1777470489 | 7.78° C | 93% | 1025.8 hPa | 0 mm | - | 44 W/m² | - |
| 1777470185 | 7.78° C | 94% | 1025.9 hPa | 0 mm | - | 38 W/m² | - |
| 1777469881 | 7.78° C | 94% | 1025.7 hPa | 0 mm | - | 34 W/m² | - |
| 1777469577 | 7.78° C | 94% | 1025.7 hPa | 0 mm | - | 30 W/m² | - |
| 1777469272 | 7.78° C | 94% | 1025.7 hPa | 0 mm | - | 25 W/m² | - |
| 1777468968 | 7.78° C | 95% | 1025.8 hPa | 0 mm | - | 20 W/m² | - |
| 1777468663 | 7.22° C | 95% | 1025.7 hPa | 0 mm | - | 16 W/m² | - |
* Rain latest hour (hover to see other rain measurements)
** Current wind speed in m/s (hover to see current wind gust speed)